Location: Gro�sch�nbrunn
(49.5760°N, 11.8868°E)
Time: 12:07:42
(UTC+00:00)

USA 238 - Pass Details

Date: 18 September 2020
Orbit: 1006 x 1206 km, 63.4° (Epoch: 15 October)

Event Time Altitude Azimuth Distance (km) Brightness Sun altitude
Rises 19:32:24 0° 316° (NW) 3,941 8.0 -21.5°
Reaches altitude 10° 19:35:03 10° 314° (NW) 3,008 7.1 -21.9°
Maximum altitude 19:42:10 67° 234° (SW) 1,254 4.0 -22.9°
Enters shadow 19:45:44 33° 163° (SSE) 1,873 4.6 -23.3°
